Tracking 17142 objects as of 28-May-2015
HD Live streaming from Space Station

SL-16 DEB

Track SL-16 DEB now!
10-day predictions
SL-16 DEB is classified as:


NORAD ID: 36031
Int'l Code: 1996-051N
Perigee: 769.8 km
Apogee: 795.2 km
Inclination: 70.9 °
Period: 100.4 minutes
Semi major axis: 7153 km
RCS: 0.0057 m2 (small)
Launch date: September 4, 1996
Source: Commonwealth of Independent States (former USSR) (CIS)

Note: This is SATELLITE DEBRIS
Your satellite tracking list
Your tracking list is empty





NASA's NSSDC Master Catalog

Two Line Element Set (TLE):
1 36031U 96051N   15147.10597479  .00004658  00000-0  16512-2 0  9994
2 36031 070.8582 151.5245 0017718 197.5416 235.1328 14.34917352291101

Source of the keplerian elements: AFSPC

N2YO: 335